User: anonymous   Login
Location: Brno
(49.2000°N, 16.6330°E)
Time: 22:03:58
(UTC+01:00)
Language:

CARTOSAT-1 - Orbit

View from above orbital plane
View from above orbital plane
View from above satellite
View from above satellite

Ground track
Ground track

The orbit data is extracted from the following two-line orbital elements,

1 28649U 05017A   17345.14819332  .00000129  00000-0  22092-4 0  9994
2 28649  97.8449  56.6145 0002249 140.6092 219.5197 14.83466888682217
Epoch (UTC): 11 December 2017 03:33:23
Eccentricity: 0.0002249
inclination: 97.8449°
perigee height: 617 km
apogee height: 620 km
right ascension of ascending node: 56.6145°
argument of perigee: 140.6092°
revolutions per day: 14.83466888
mean anomaly at epoch: 219.5197°
orbit number at epoch: 68221

The dashed part of the orbit path shows where the satellite is in the earth's shadow,  

DLR